Flag for United Kingdom Weather past 2 weeks in Birmingham, England, United Kingdom

Now
59 °F

Scattered showers. Scattered clouds.


Feels Like: 57 °F
Forecast: 47 / 61 °F
Wind: 12 mph from Southwest

Location: Birmingham / Airport

Current Time: May 3, 2015 at 7:53:46 PM

Latest Report: May 3, 2015 at 7:20 PM


Visibility: N/A

Pressure: 29.42 "Hg

Humidity: 68%

Dew point: 48 °F

Location of BirminghamLocation

Historic Weather in Birmingham — Graph

°F

Birmingham temperature yesterday

Maximum temperature yesterday: 54 °F (at 6:20 PM)
Minimum temperature yesterday: 41 °F (at 2:20 AM)
Average temperature yesterday: 47 °F

Past Weeks' High & Low Weather Summary

 TemperatureHumidityPressure
High63 °F (Apr 21, 2:50 PM)100% (Apr 24, 6:20 AM)30.60 "Hg (Apr 24, 6:20 AM)
Low36 °F (Apr 20, 2:20 AM)28% (Apr 26, 5:20 PM)29.30 "Hg (May 3, 8:50 AM)
Average48 °F68%29.99 "Hg
* Reported Apr 18 6:20 PM — May 3 6:20 PM, Birmingham, Weather by CustomWeather, © 2015

Note: Actual official high and low records may vary slightly from our data, if they occured in-between our weather recording intervals... More about our weather records

Advertising

Birmingham weather history for previous 24 hours

 ConditionsComfort  
Time TempWeatherWind HumidityBarometerVisibility
6:20 PM
Sun, May 3
59 °FScattered clouds.9 mph59%29.39 "HgN/A
5:50 PM61 °FPartly sunny.12 mph55%29.39 "HgN/A
5:20 PM63 °FScattered clouds.13 mph52%29.39 "HgN/A
4:50 PM63 °FPartly sunny.16 mph52%29.39 "HgN/A
4:20 PM63 °FBroken clouds.13 mph64%29.36 "HgN/A
3:50 PM63 °FScattered clouds.10 mph68%29.36 "HgN/A
3:20 PM63 °FScattered clouds.14 mph68%29.36 "HgN/A
2:50 PM59 °FScattered showers. Broken clouds.8 mph77%29.36 "HgN/A
2:20 PM63 °FScattered showers. Partly sunny.9 mph77%29.36 "HgN/A
1:50 PM63 °FScattered showers. Partly sunny.8 mph73%29.33 "HgN/A
1:20 PM63 °FPartly sunny.7 mph73%29.33 "HgN/A
12:50 PM61 °FPartly sunny.9 mph77%29.33 "HgN/A
12:20 PM61 °FPartly sunny.9 mph77%29.33 "HgN/A
11:50 AM61 °FPartly sunny.8 mph77%29.33 "HgN/A
11:20 AM59 °FPartly sunny.9 mph82%29.30 "HgN/A
10:50 AM57 °FBroken clouds.9 mph88%29.30 "HgN/A
10:20 AM57 °FBroken clouds.9 mph94%29.30 "HgN/A
9:50 AM55 °FLight rain. Cloudy.9 mph94%29.30 "Hg3 mi
9:20 AM54 °FLight rain. Mostly cloudy.8 mph94%29.30 "Hg2 mi
8:50 AM54 °FDrizzle. Mostly cloudy.12 mph94%29.30 "Hg1 mi
8:20 AM52 °FDrizzle. Cloudy.12 mph100%29.33 "Hg4 mi
7:50 AM50 °FDrizzle. Mostly cloudy.10 mph100%29.33 "Hg2 mi
7:20 AM50 °FDrizzle. Cloudy.12 mph100%29.33 "Hg1 mi
6:50 AM50 °FRain. Broken clouds.15 mph94%29.36 "Hg1 mi
6:20 AM48 °FRain. Passing clouds.15 mph100%29.39 "Hg3 mi
5:50 AM48 °FLight rain. Low clouds.16 mph100%29.39 "Hg3 mi
5:20 AM48 °FPassing clouds.14 mph94%29.39 "Hg3 mi
4:50 AM46 °FRain. Mostly cloudy.14 mph100%29.42 "Hg3 mi
4:20 AM46 °FRain. Mostly cloudy.12 mph93%29.45 "Hg3 mi
3:50 AM45 °FRain. Low clouds.12 mph100%29.47 "Hg4 mi
3:20 AM45 °FDrizzle. Low clouds.12 mph93%29.50 "Hg4 mi
2:50 AM45 °FDrizzle. Overcast.10 mph93%29.53 "Hg1 mi
2:20 AM45 °FDrizzle. Overcast.10 mph93%29.53 "Hg1 mi
1:50 AM45 °FOvercast.12 mph87%29.56 "Hg6 mi
1:20 AM46 °FLight rain. Overcast.13 mph82%29.56 "Hg4 mi
12:50 AM46 °FLight rain. Overcast.13 mph76%29.59 "Hg4 mi
12:20 AM46 °FOvercast.13 mph76%29.62 "HgN/A
11:50 PM
Sat, May 2
48 °FPassing clouds.10 mph71%29.62 "HgN/A
11:20 PM48 °FLight rain. Passing clouds.12 mph71%29.62 "HgN/A
10:50 PM48 °FLight rain. Partly cloudy.13 mph71%29.65 "HgN/A
10:20 PM48 °FLight rain. Mostly cloudy.15 mph71%29.65 "HgN/A
9:50 PM48 °FLight rain. Passing clouds.13 mph76%29.65 "HgN/A
9:20 PM50 °FLight rain. Partly sunny.14 mph67%29.68 "HgN/A
8:50 PM50 °FPartly sunny.15 mph67%29.68 "HgN/A
8:20 PM52 °FPartly sunny.15 mph62%29.65 "HgN/A
7:50 PM52 °FPartly sunny.14 mph67%29.65 "HgN/A
7:20 PM52 °FMore clouds than sun.16 mph67%29.68 "HgN/A
Weather by CustomWeather, © 2015

See weather overviewHow to use our weather pages